User: anonymous   Login
Location: Unspecified
(0.0000°N, 0.0000°E)
Time: 20:41:05
(UTC+00:00)
Language:

SAUDISAT 4 - Orbit

View from above orbital plane
View from above orbital plane
View from above satellite
View from above satellite

Ground track
Ground track

The orbit is defined by the following mean orbital elements,

1 40016U          26075.19118578 +.00000000 +00000-0 +10873-3 0 00006
2 40016  97.7425 224.6220 0045246  17.8424 342.4365 14.79402653    00
Epoch (UTC): 16 March 2026 04:35:18
Eccentricity: 0.0045246
inclination: 97.7425°
perigee height: 599 km
apogee height: 663 km
right ascension of ascending node: 224.6220°
argument of perigee: 17.8424°
revolutions per day: 14.79402653
mean anomaly at epoch: 342.4365°

The dashed part of the orbit path shows where the satellite is in the earth's shadow,  

DLR